Flag for Germany Weather past 2 weeks in Pfaffenhofen an der Ilm, Bavaria, Germany

Now
43 °F

Quite cool.


Feels Like: 37 °F
Forecast: 46 / 49 °F
Wind: 10 mph from West

Location: Ingolstadt Airport

Current Time: Dec 18, 2014 at 5:28:52 AM

Latest Report: Dec 18, 2014 at 4:20 AM


Visibility: N/A

Pressure: 29.98 "Hg

Humidity: 93%

Dew point: 41 °F

Location of Pfaffenhofen an der IlmLocation

Historic Weather in Pfaffenhofen an der Ilm — Graph

°F

Pfaffenhofen an der Ilm temperature yesterday

Maximum temperature yesterday: 41 °F (at 1:20 PM)
Minimum temperature yesterday: 34 °F (at 7:20 AM)
Average temperature yesterday: 39 °F

Past Weeks' High & Low Weather Summary

 TemperatureHumidityPressure
High50 °F (Dec 14, 2:20 PM)100% (Dec 5, 4:49 PM)30.45 "Hg (Dec 5, 4:49 PM)
Low28 °F (Dec 8, 11:20 PM)54% (Dec 12, 5:20 PM)29.77 "Hg (Dec 12, 4:20 PM)
Average39 °F90%30.03 "Hg
* Reported Dec 3 4:20 AM — Dec 18 4:20 AM, Pfaffenhofen an der Ilm, Weather by CustomWeather, © 2014

Note: Actual official high and low records may vary slightly from our data, if they occured in-between our weather recording intervals... More about our weather records

Advertising

Pfaffenhofen an der Ilm weather history for previous 24 hours

 ConditionsComfort  
Time TempWeatherWind HumidityBarometerVisibility
4:20 AM
Dec 18
43 °FQuite cool.10 mph93%29.98 "HgN/A
3:20 AM43 °FQuite cool.10 mph93%29.98 "HgN/A
2:20 AM43 °FQuite cool.9 mph93%29.98 "HgN/A
1:20 AM43 °FQuite cool.12 mph93%29.95 "HgN/A
12:20 AM41 °FQuite cool.13 mph100%29.95 "HgN/A
11:20 PM
Dec 17
41 °FQuite cool.12 mph93%29.92 "HgN/A
10:20 PM41 °FQuite cool.12 mph93%29.89 "HgN/A
9:20 PM39 °FChilly.13 mph93%29.86 "HgN/A
8:20 PM39 °FChilly.13 mph93%29.86 "HgN/A
7:20 PM39 °FChilly.13 mph93%29.86 "HgN/A
6:20 PM39 °FLight rain. Low clouds.14 mph93%29.83 "Hg4 mi
5:20 PM39 °FRain. Overcast.13 mph100%29.80 "Hg4 mi
5:00 PM41 °FRain. Overcast.14 mph87%29.80 "Hg5 mi
4:20 PM41 °FRain. Overcast.13 mph93%29.80 "Hg5 mi
3:20 PM41 °FLight rain. Partly sunny.13 mph87%29.80 "Hg5 mi
2:20 PM41 °FPartly sunny.8 mph87%29.80 "HgN/A
1:20 PM41 °FPartly sunny.9 mph81%29.83 "HgN/A
12:20 PM39 °FPartly sunny.7 mph87%29.86 "HgN/A
11:20 AM39 °FBroken clouds.6 mph87%29.92 "HgN/A
10:20 AM39 °FBroken clouds.7 mph87%29.92 "HgN/A
9:20 AM37 °FPartly sunny.6 mph93%29.95 "HgN/A
8:20 AM36 °FBroken clouds.5 mph93%29.95 "HgN/A
7:20 AM34 °FPartly cloudy.3 mph100%29.98 "HgN/A
6:20 AM36 °FPassing clouds.2 mph93%29.98 "HgN/A
5:20 AM36 °FPassing clouds.2 mph93%29.98 "HgN/A
Weather by CustomWeather, © 2014

See weather overviewHow to use our weather pages